Weather History for PHBK - June, 2013

Change the Weather History Date:

Thursday, June 13, 2013

  Actual Average Record
Temperature  
Mean Temperature 76 °F -  
Max Temperature 84 °F 87 °F 90 °F (1966)
Min Temperature 69 °F 66 °F 62 °F (1956)
Cooling Degree Days 12    
Growing Degree Days 26 (Base 50)    
Moisture  
Dew Point 65 °F    
Average Humidity 66    
Maximum Humidity 79    
Minimum Humidity 51    
Precipitation  
Precipitation 0.00 in - - ()
Sea Level Pressure  
Sea Level Pressure 30.09 in    
Wind  
Wind Speed 3 mph (WNW)    
Max Wind Speed 12 mph    
Max Gust Speed 16 mph    
Visibility 10 miles    
Events      
Averages and records for this station are not official NWS values.
T = Trace of Precipitation, MM = Missing Value Source: NWS Daily Summary

Daily Weather History Graph

Daily Weather History Graph

Search for Another Location

Airport or City:

Trip Planner

Search our weather history database for the weather conditions in past years. The results will help you decide how hot, cold, wet, or windy it might be!

Date:

Astronomy

Jun. 13, 2013 Rise Set
Actual Time 5:55 AM HST 7:23 PM HST
Civil Twilight 5:30 AM HST 7:48 PM HST
Nautical Twilight 5:00 AM HST 8:18 PM HST
Astronomical Twilight 4:29 AM HST 8:49 PM HST
Moon 10:15 AM HST (6/13) 11:07 PM HST (6/13)
Length of Visible Light 14h 18m
Length of Day
13h 28m
Waxing Crescent, 23% of the Moon is Illuminated
Jun 13
Waxing Crescent
Jun 16
First Quarter
Jun 23
Full
Jun 29
Last Quarter
Jul 7
New

Hourly Weather History & Observations

Time (HST) Temp. Heat Index Dew Point Humidity Pressure Visibility Wind Dir Wind Speed Gust Speed Precip Events Conditions
12:56 AM 73.0 °F - 61.0 °F 66% 30.10 in 10.0 mi Calm Calm - N/A   Clear
1:56 AM 73.0 °F - 61.0 °F 66% 30.08 in 10.0 mi Calm Calm - N/A   Clear
2:56 AM 70.0 °F - 61.0 °F 73% 30.08 in 10.0 mi Calm Calm - N/A   Partly Cloudy
3:56 AM 69.1 °F - 60.1 °F 73% 30.08 in 10.0 mi Calm Calm - N/A   Clear
4:56 AM 70.0 °F - 61.0 °F 73% 30.08 in 10.0 mi East 3.5 mph - N/A   Clear
5:56 AM 70.0 °F - 63.0 °F 78% 30.09 in 10.0 mi Calm Calm - N/A   Clear
6:56 AM 73.9 °F - 64.9 °F 73% 30.09 in 10.0 mi NE 3.5 mph - N/A   Clear
7:56 AM 77.0 °F - 66.0 °F 69% 30.11 in 10.0 mi Calm Calm - N/A   Clear
8:56 AM 79.0 °F - 66.9 °F 66% 30.12 in 10.0 mi WNW 6.9 mph - N/A   Clear
9:56 AM 81.0 °F 83.0 °F 66.0 °F 60% 30.12 in 10.0 mi West 8.1 mph - N/A   Scattered Clouds
10:56 AM 81.0 °F 83.3 °F 66.9 °F 62% 30.11 in 10.0 mi WNW 9.2 mph - N/A   Partly Cloudy
11:56 AM 84.0 °F 85.8 °F 64.9 °F 53% 30.11 in 10.0 mi West 9.2 mph - N/A   Clear
12:56 PM 84.0 °F 85.8 °F 64.9 °F 53% 30.10 in 10.0 mi West 8.1 mph - N/A   Scattered Clouds
1:56 PM 84.9 °F 86.6 °F 64.9 °F 51% 30.08 in - WNW 8.1 mph - N/A   Partly Cloudy
2:56 PM 82.9 °F 84.6 °F 64.9 °F 54% 30.07 in - WNW 5.8 mph 16.1 mph N/A   Mostly Cloudy
3:56 PM 82.9 °F 85.4 °F 66.9 °F 58% 30.06 in - WNW 10.4 mph - N/A   Mostly Cloudy
4:56 PM 82.9 °F 85.8 °F 68.0 °F 60% 30.05 in - NW 11.5 mph - N/A   Overcast
5:56 PM 81.0 °F 83.0 °F 66.0 °F 60% 30.06 in - Calm Calm - N/A   Mostly Cloudy
6:56 PM 80.1 °F 82.7 °F 68.0 °F 67% 30.08 in - West 8.1 mph - N/A   Scattered Clouds
7:56 PM 79.0 °F - 68.0 °F 69% 30.09 in - WSW 5.8 mph - N/A   Scattered Clouds
8:56 PM 77.0 °F - 66.9 °F 71% 30.11 in - Calm Calm - N/A   Overcast
9:56 PM 75.9 °F - 66.9 °F 74% 30.13 in - Calm Calm - N/A   Scattered Clouds
10:56 PM 75.0 °F - 66.0 °F 73% 30.14 in - Calm Calm - N/A   Mostly Cloudy
11:56 PM 73.0 °F - 66.0 °F 79% 30.12 in - NE 4.6 mph - N/A   Clear